Flag for U.S.A. Weather past 2 weeks in Beaumont, Texas, U.S.A.

Now
44 °F

Clear.


Feels Like: 39 °F
Forecast: 42 / 63 °F
Wind: 9 mph from Northeast

Location: Jefferson County Airport

Current Time: Jan 31, 2015 at 6:01:12 AM

Latest Report: Jan 31, 2015 at 4:53 AM


Visibility: 10 mi

Pressure: 30.23 "Hg

Humidity: 76%

Dew point: 37 °F

Location of BeaumontLocation

Historic Weather in Beaumont — Graph

°F

Beaumont temperature yesterday

Maximum temperature yesterday: 65 °F (at 2:53 PM)
Minimum temperature yesterday: 49 °F (at 11:53 PM)
Average temperature yesterday: 55 °F

Past Weeks' High & Low Weather Summary

 TemperatureHumidityPressure
High78 °F (Jan 27, 2:53 PM)100% (Jan 19, 4:53 AM)30.42 "Hg (Jan 19, 4:53 AM)
Low33 °F (Jan 16, 4:53 AM)25% (Jan 18, 1:53 PM)29.93 "Hg (Jan 20, 2:53 PM)
Average54 °F73%30.14 "Hg
* Reported Jan 16 4:53 AM — Jan 31 4:53 AM, Beaumont, Weather by CustomWeather, © 2014

Note: Actual official high and low records may vary slightly from our data, if they occured in-between our weather recording intervals... More about our weather records

Advertising

Beaumont weather history for previous 24 hours

 ConditionsComfort  
Time TempWeatherWind HumidityBarometerVisibility
4:53 AM
Jan 31
44 °FClear.9 mph76%30.23 "Hg10 mi
3:53 AM45 °FClear.7 mph71%30.24 "Hg10 mi
2:53 AM47 °FClear.14 mph66%30.24 "Hg10 mi
1:53 AM47 °FClear.10 mph69%30.27 "Hg10 mi
12:53 AM48 °FClear.8 mph63%30.27 "Hg10 mi
11:53 PM
Jan 30
49 °FClear.10 mph61%30.29 "Hg10 mi
10:53 PM50 °FClear.7 mph61%30.32 "Hg10 mi
9:53 PM50 °FClear.7 mph61%30.33 "Hg10 mi
8:53 PM52 °FClear.7 mph57%30.33 "Hg10 mi
7:53 PM54 °FClear.7 mph53%30.32 "Hg10 mi
6:53 PM56 °FClear.7 mph49%30.30 "Hg10 mi
5:53 PM58 °FClear.5 mph44%30.31 "Hg10 mi
4:53 PM60 °FSunny.8 mph38%30.31 "Hg10 mi
3:53 PM61 °FSunny.9 mph32%30.32 "Hg10 mi
2:53 PM65 °FSunny.10 mph33%30.32 "Hg10 mi
1:53 PM60 °FSunny.9 mph41%30.33 "Hg10 mi
12:53 PM59 °FSunny.8 mph42%30.37 "Hg10 mi
11:53 AM57 °FSunny.12 mph49%30.39 "Hg10 mi
10:53 AM55 °FSunny.13 mph51%30.42 "Hg10 mi
9:53 AM52 °FSunny.14 mph57%30.41 "Hg10 mi
8:53 AM50 °FSunny.17 mph63%30.41 "Hg10 mi
7:53 AM50 °FSunny.12 mph66%30.39 "Hg10 mi
6:53 AM51 °FClear.10 mph71%30.35 "Hg10 mi
Weather by CustomWeather, © 2014

See weather overviewHow to use our weather pages